#timestamp,LO_Frequency,Hit,StdDev 
1619744415.1,286047000.9,N
1619744416.0,286047000.9,N
1619744435.8,286047000.9,N
1619744455.6,286046998.2,N
1619744475.5,286047000.1,N
1619744495.3,286047002.8,N
1619744515.2,286047002.4,N
1619744535.9,286047002.5,N
1619744555.7,286047002.8,N
1619744575.6,286047000.6,N
1619744595.4,286047000.4,N
1619744615.2,286046998.2,N
1619744635.1,286047001.1,N
1619744636.0,286047001.1,N
1619744655.8,286046998.8,N
1619744675.7,286046999.0,N
1619744695.5,286046999.2,N
1619744715.3,286046997.2,N
1619744735.2,286046996.5,N
1619744755.0,286046999.0,N
1619744755.9,286046999.0,N
1619744775.8,286046997.8,N
1619744795.6,286046997.5,N
1619744815.4,286046999.4,N
1619744835.3,286046999.2,N
1619744855.1,286046999.4,N
1619744875.8,286046998.9,N
1619744895.7,286046999.1,N
1619744915.5,286046996.9,N
1619744935.4,286046997.7,N
1619744955.2,286046995.3,N
1619744975.0,286046999.6,N
1619744975.9,286046999.6,N
1619744995.8,286046997.8,N
1619745015.6,286046994.9,N
1619745035.5,286046994.1,N
1619745055.3,286046992.9,Y
1619745075.1,286046996.2,P
1619745095.9,286046996.6,N
1619745115.7,286046999.2,N
1619745135.5,286046996.5,N
1619745155.4,286046996.9,N
1619745175.2,286046996.7,N
1619745195.1,286046995.2,Y
1619745196.0,286046995.2,P
1619745215.8,286046999.0,N
1619745235.6,286046999.5,N
1619745255.5,286046997.2,N
1619745275.3,286046997.3,N
1619745295.2,286046996.6,N
1619745315.9,286046999.2,N
1619745335.7,286046997.4,N
1619745355.6,286046997.1,N
1619745375.4,286046998.5,N
1619745395.2,286047002.6,N
1619745415.1,286047001.9,N
1619745416.0,286047001.9,N
1619745435.8,286046999.7,N
1619745455.7,286047001.2,N
1619745475.5,286046998.9,N
1619745495.3,286046999.6,N
1619745515.2,286046999.4,N
1619745535.0,286046998.5,N
1619745535.9,286046998.5,N
1619745555.7,286047001.8,N
1619745575.6,286047005.6,N
1619745595.4,286047006.4,N
1619745615.3,286047006.5,N
1619745635.1,286047007.6,N
1619745636.0,286047007.6,N
1619745655.8,286047008.6,N
1619745675.7,286047007.0,N
1619745695.5,286047004.6,N
1619745715.3,286047005.0,N
1619745735.2,286047006.5,N
1619745755.0,286047008.5,N
1619745755.9,286047008.5,N
1619745775.8,286047005.0,N
1619745795.6,286047001.9,N
1619745815.4,286047002.6,N
1619745835.3,286047007.6,N
1619745855.1,286047004.6,N
1619745875.8,286047003.1,N
1619745895.7,286047002.3,N
1619745915.5,286047001.4,N
1619745935.4,286047004.7,N
1619745955.2,286047005.0,N
1619745975.0,286047006.8,N
1619745975.9,286047006.8,N
1619745995.8,286047005.4,N
1619746015.6,286047001.5,N
1619746035.5,286047003.4,N
1619746055.3,286047007.1,N
1619746075.1,286047007.6,Y
1619746095.9,286046999.2,P
1619746115.7,286046997.1,N
1619746135.5,286046997.6,N
1619746155.4,286046998.4,N
1619746175.2,286047000.2,N
1619746195.1,286046999.8,N
1619746196.0,286046999.8,N
1619746215.8,286047000.9,N
1619746235.6,286046999.4,N
1619746255.5,286046997.5,N
1619746275.3,286046996.7,N
1619746295.1,286046996.6,N
1619746315.9,286046996.6,N
1619746335.7,286046997.4,N
1619746355.6,286046996.5,N
1619746375.4,286047001.2,N
1619746395.2,286046999.2,N
1619746415.1,286046999.3,N
1619746416.0,286046999.3,N
1619746435.8,286046999.1,N
1619746455.6,286046996.6,N
1619746475.5,286046996.9,N
1619746495.3,286046997.0,N
1619746515.2,286046997.7,N
1619746535.9,286046998.6,N
1619746555.7,286047000.2,N
1619746575.6,286046998.1,N
1619746595.4,286046999.0,N
1619746615.2,286046999.1,N
1619746635.1,286047000.9,N
1619746636.0,286047000.9,N
1619746655.8,286047000.2,N
1619746675.7,286046998.6,N
1619746695.5,286046997.9,N
1619746715.3,286046995.8,N
1619746735.2,286046998.0,N
1619746755.0,286046995.0,Y
1619746755.9,286046995.0,P
1619746775.8,286046999.5,N
1619746795.6,286046996.7,N
1619746815.4,286046998.7,N
1619746835.3,286047002.7,N
1619746855.1,286046999.9,N
1619746875.8,286047000.2,N
1619746895.7,286047000.8,N
1619746915.5,286047000.5,N
1619746935.4,286046998.4,N
1619746955.2,286046999.3,N
1619746975.0,286046996.6,N
1619746975.9,286046996.6,N
1619746995.8,286046995.3,N
1619747015.6,286046995.0,N
1619747035.4,286046999.6,N
1619747055.3,286047000.9,N
1619747075.1,286046998.4,N
1619747095.9,286046996.5,N
1619747115.7,286046999.1,N
1619747135.5,286046999.0,N
1619747155.4,286046998.5,N
1619747175.2,286047001.5,N
1619747195.0,286047001.4,N
1619747195.9,286047001.4,N
1619747215.8,286046998.3,N
1619747235.6,286046999.5,N
1619747255.5,286046999.3,N
1619747275.3,286046998.6,N
1619747295.1,286046999.8,N
1619747315.9,286047002.7,N
1619747335.7,286047004.1,N
1619747355.5,286047004.2,N
1619747375.4,286047001.7,N
1619747395.2,286047003.3,N
1619747415.1,286047003.7,N
1619747416.0,286047003.7,N
1619747435.8,286047004.2,N
1619747455.6,286047007.3,N
1619747475.5,286047007.4,N
1619747495.3,286047006.0,N
1619747515.1,286047007.2,N
1619747535.9,286047007.2,N
1619747555.7,286047007.0,N
1619747575.6,286047006.8,N
1619747595.4,286047007.9,N
1619747615.2,286047008.8,N
1619747635.1,286047006.6,N
1619747636.0,286047006.6,N
1619747655.8,286047007.2,N
1619747675.6,286047003.3,N
1619747695.5,286047003.9,N
1619747715.3,286047003.3,N
1619747735.2,286047000.2,N
1619747755.9,286047001.6,N
1619747775.7,286047003.7,N
1619747795.6,286047001.5,N
1619747815.4,286047002.7,N
1619747835.2,286047000.5,N
1619747855.1,286047000.2,N
1619747856.0,286047000.2,N
1619747875.8,286047000.8,N
1619747895.7,286047002.8,N
1619747915.5,286047004.2,N
1619747935.3,286047005.9,N
1619747955.2,286047005.5,N
1619747975.0,286047006.6,N
1619747975.9,286047006.6,N
1619747995.8,286047009.4,Y
